Home > Weather > Harrisburg > Past weeks

Flag for USA Past Weather in Harrisburg, Pennsylvania, USA — Yesterday and Last 2 Weeks

Now
76 °F

Light rain. Broken clouds.


Feels Like: 76 °F
Forecast: 72 / 87 °F
Wind: 7 mph from East

Location: Capital City Airport

Current Time: Jul 28, 2016 at 10:10:01 PM

Latest Report: Jul 28, 2016 at 8:56 PM


Visibility: 9 mi

Pressure: 29.86 "Hg

Humidity: 85%

Dew Point: 71 °F

Location of HarrisburgLocation

Past Weather in Harrisburg — Graph

°F

Harrisburg Temperature Yesterday

Maximum temperature yesterday: 92 °F (at 3:56 PM)
Minimum temperature yesterday: 74 °F (at 4:56 AM)
Average temperature yesterday: 83 °F

High & Low Weather Summary for the Past Weeks

 TemperatureHumidityPressure
High99 °F (Jul 23, 5:56 PM)94% (Jul 26, 5:56 AM)30.24 "Hg (Jul 26, 5:56 AM)
Low64 °F (Jul 21, 3:56 AM)24% (Jul 19, 4:56 PM)29.80 "Hg (Jul 14, 4:56 PM)
Average82 °F59%29.99 "Hg
* Reported Jul 13 8:56 PM — Jul 28 8:56 PM, Harrisburg, Weather by CustomWeather, © 2016

Note: Actual official high and low records may vary slightly from our data, if they occured in-between our weather recording intervals... More about our weather records

Advertising

Harrisburg Weather History for the Previous 24 Hours

Scroll right to see more
 ConditionsComfort  
Time TempWeatherWind HumidityBarometerVisibility
8:56 PM
Thu, Jul 28
76 °FLight rain. Broken clouds.7 mph85%29.86 "Hg9 mi
7:56 PM78 °FLight rain. Mostly cloudy.5 mph74%29.87 "Hg10 mi
6:56 PM78 °FMostly cloudy.6 mph74%29.89 "Hg10 mi
5:56 PM80 °FPartly sunny.16 mph69%29.87 "Hg10 mi
4:56 PM82 °FScattered clouds.6 mph65%29.85 "Hg10 mi
3:56 PM81 °FLight rain. Cloudy.12 mph69%29.84 "Hg10 mi
2:56 PM89 °FThundershowers. Partly sunny.6 mph52%29.85 "Hg10 mi
1:56 PM91 °FPassing clouds.7 mph49%29.85 "Hg10 mi
12:56 PM87 °FSunny.No wind57%29.88 "Hg10 mi
11:56 AM84 °FSunny.No wind61%29.90 "Hg10 mi
10:56 AM83 °FSunny.No wind61%29.91 "Hg10 mi
9:56 AM82 °FLight rain. Scattered clouds.No wind60%29.92 "Hg10 mi
8:56 AM80 °FPartly sunny.No wind69%29.92 "Hg10 mi
7:56 AM77 °FPartly sunny.No wind74%29.92 "Hg10 mi
6:56 AM74 °FClear.3 mph82%29.91 "Hg10 mi
5:56 AM72 °FPassing clouds.3 mph84%29.91 "Hg10 mi
4:56 AM72 °FPassing clouds.No wind84%29.90 "Hg10 mi
3:56 AM74 °FPassing clouds.No wind76%29.90 "Hg10 mi
2:56 AM74 °FClear.No wind76%29.91 "Hg10 mi
1:56 AM74 °FClear.3 mph76%29.91 "Hg10 mi
12:56 AM75 °FClear.5 mph74%29.92 "Hg10 mi
11:56 PM
Wed, Jul 27
76 °FClear.3 mph72%29.91 "Hg10 mi
10:56 PM79 °FClear.No wind67%29.91 "Hg10 mi
Weather by CustomWeather, © 2016

See weather overviewHow to use our weather pages